• Join FlightAware (Why Join?)
  • Login
  • US Flag GB Flag 
07:26 EST


 

Airport Tracker/Info


-or-


 

Live Flight TrackerFlight Track Log ✈ RPA3196 ✈ 15-May-2013 ✈ KPHL - KBTV

Flight Track Log - Related Links

Times and Time Zones

All times are in EDT time to prevent confusion due to time zone crossing. See the RPA3196 flight status page for this flight to view local times or setup timezone preferences in your user account.

Time Position Orientation Groundspeed Altitude Reporting Facility
EDT Latitude Longitude Course Direction KTS MPH feet Rate Location/Type
09:35 39.8833 -75.2167 37° Northeast 162 186 1,000  Level Philadelphia TRACON
09:36 39.8667 -75.1667 113° Southeast 203 234 2,200 2,000 Climbing Philadelphia TRACON
09:37 39.8500 -75.0667 102° East 275 316 4,800 2,483 Climbing Philadelphia TRACON
09:38 39.7972 -74.7692 105° East  Level FlightAware Approximate
09:39 39.8134 -74.6699 37° Northeast  Level FlightAware Approximate
09:39 39.8122 -74.8300 102° East 310 357 10,600  Level New York Center
09:40 39.8871 -74.5963 37° Northeast  Level FlightAware Approximate
09:40 39.8144 -74.7031 89° East 334 384 12,300  Level New York Center
09:41 39.9642 -74.5358 37° Northeast  Level FlightAware Approximate
09:41 39.8881 -74.6233 40° Northeast 299 344 15,100  Level New York Center
09:42 39.9592 -74.5514 38° Northeast 306 352 17,200 1,934 Climbing New York Center
09:43 40.0389 -74.4744 36° Northeast 339 390 19,000 1,750 Climbing New York Center
09:44 40.1183 -74.3972 37° Northeast 350 403 20,700 1,765 Climbing New York Center
09:45 40.1978 -74.3172 38° Northeast 350 403 22,500 1,563 Climbing New York Center
09:46 40.2817 -74.2344 37° Northeast 355 409 23,800 1,339 Climbing New York Center
09:47 40.3675 -74.1489 37° Northeast 366 421 25,200 1,388 Climbing New York Center
09:48 40.4622 -74.1125 16° North 361 415 26,600 893 Climbing New York Center
09:49 40.5650 -74.0903 North 361 415 27,000 198 Climbing New York Center
09:50 40.6656 -74.0706 North 361 415 27,000  Level New York Center
09:53 40.8992 -74.0189 North 369 425 27,000  Level Boston Center
09:54 40.9997 -73.9939 11° North 369 425 27,000  Level Boston Center
09:55 41.1000 -73.9744 North 369 425 27,000  Level Boston Center
09:56 41.1981 -73.9519 10° North 364 419 27,000  Level Boston Center
09:57 41.2964 -73.9292 10° North 359 413 27,000  Level Boston Center
09:58 41.3947 -73.9094 North 354 407 27,000  Level Boston Center
09:59 41.4908 -73.8839 11° North 354 407 27,000  Level Boston Center
10:00 41.5892 -73.8611 10° North 354 407 27,000  Level Boston Center
10:01 41.6872 -73.8383 10° North 354 407 27,000  Level Boston Center
10:02 41.7856 -73.8156 10° North 354 407 27,000  Level Boston Center
10:03 41.8817 -73.7953 North 354 407 27,000  Level Boston Center
10:04 41.9800 -73.7694 11° North 354 407 27,000  Level Boston Center
10:05 42.0761 -73.7464 10° North 354 407 27,000  Level Boston Center
10:06 42.1722 -73.7231 10° North 354 407 27,000  Level Boston Center
10:07 42.2725 -73.7028 North 354 407 27,000  Level Boston Center
10:08 42.3708 -73.6767 11° North 354 407 27,000  Level Boston Center
10:09 42.4669 -73.6531 10° North 354 407 27,000  Level Boston Center
10:10 42.5672 -73.6325 North 354 407 27,000  Level Boston Center
10:11 42.6633 -73.6061 11° North 354 407 27,000  Level Boston Center
10:12 42.7614 -73.5853 North 354 407 27,000 -750 Level Boston Center
10:13 42.8575 -73.5589 11° North 354 407 25,500 -1,500 Descending Boston Center
10:14 42.9517 -73.5350 11° North 343 395 24,000 -750 Descending Boston Center
10:15 43.0478 -73.5111 10° North 348 400 24,000  Level Boston Center
10:16 43.1564 -73.4847 10° North 354 407 24,000  Level Boston Center
10:17 43.2525 -73.4578 12° North 354 407 24,000  Level Boston Center
10:18 43.3275 -73.4389 10° North 354 407 24,000 -150 Level Boston Center
10:19 43.4444 -73.4122 North 354 407 23,700 -1,100 Descending Boston Center
10:20 43.5386 -73.3881 11° North 354 407 21,800 -1,800 Descending Boston Center
10:21 43.6325 -73.3636 11° North 349 402 20,100 -1,650 Descending Boston Center
10:22 43.7117 -73.3478 North 335 386 18,500 -1,650 Descending Boston Center
10:23 43.8017 -73.3261 10° North 329 379 16,800 -1,700 Descending Boston Center
10:24 43.8850 -73.3042 11° North 316 364 15,100 -1,700 Descending Boston Center
10:25 43.9728 -73.2825 10° North 316 364 13,400 -1,773 Descending Boston Center
10:26 44.0853 -73.2811 North 304 350 11,200 -1,909 Descending Boston Center
10:27 44.1644 -73.3025 349° North 299 344 9,200 -2,050 Descending Boston Center
10:28 44.2414 -73.3181 352° North 283 326 7,100 -2,200 Descending Boston Center
10:29 44.3161 -73.3425 347° North 273 314 4,800 -1,550 Descending Boston Center
10:30 44.3950 -73.3639 349° North 278 320 4,000 -400 Descending Boston Center
10:31 44.4658 -73.3853 348° North 273 314 4,000  Level Boston Center
10:32 44.5114 -73.4239 329° Northwest 248 285 4,000  Level Boston Center
10:33 44.5506 -73.4683 321° Northwest 206 237 4,000 -550 Level Boston Center
10:34 44.5822 -73.4253 44° Northeast 154 177 2,900 -900 Descending Boston Center
10:35 44.5767 -73.3464 96° East 121 139 2,200 -350 Descending Boston Center
10:36 44.5581 -73.2936 116° Southeast 145 167 2,200  Level Boston Center